Location: Ambatotampy
(18.8181°S, 47.6186°E)
Time: 03:56:01
(UTC+00:00)

SJ 16-02 - Visible Passes

Search period start: 19 May 2021 00:00
Search period end: 29 May 2021 00:00
Orbit: 605 x 617 km, 75.0° (Epoch: 18 May)

Date Brightness Start Highest point End Pass type
(mag) Time Alt. Az. Time Alt. Az. Time Alt. Az.
19 May 2.3 14:50:15 10° SSE 14:53:55 25° ESE 14:57:35 10° NE visible
19 May 4.3 16:29:38 10° WSW 16:32:10 15° W 16:34:41 10° NW visible
20 May 1.4 15:04:25 10° S 15:08:47 56° ESE 15:13:07 10° NNE visible
21 May 1.9 15:19:10 10° SSW 15:23:33 62° WNW 15:27:55 10° N visible
22 May 3.6 15:34:30 10° SW 15:38:16 27° W 15:42:01 10° NNW visible
23 May 4.7 15:51:05 10° WSW 15:52:55 12° W 15:54:46 10° WNW visible
24 May 4.5 02:29:29 10° NE 02:32:18 17° E 02:35:08 10° ESE visible
25 May 3.1 02:42:57 10° NNE 02:46:58 37° E 02:51:02 10° SSE visible
25 May 2.4 14:40:01 10° SSW 14:44:20 51° W 14:48:37 10° N visible
26 May 4.2 14:55:32 10° SW 14:59:02 23° W 15:02:30 10° NNW visible
27 May 5.2 15:13:25 10° W 15:13:40 10° W 15:13:56 10° W visible
28 May 4.1 01:49:50 10° NNE 01:53:03 20° E 01:56:17 10° SE visible
